IGO6815 VOMM-VOBL

Flight info

Callsign IGO6815
Flight time 0h 47m
Altitude 16000
Route MMV W117 BIA
Aircraft A320/M-SDE3FGHIRWY/LB1

Departure

Time 2026-04-22 06:46
Airport Chennai International Airport (VOMM)

Arrival

Time 2026-04-22 07:33
Airport Kempegowda International Airport Bengaluru (VOBL)
Time Latitude Longitude Altitude Speed Heading
2026-04-22 06:24 12.98466 80.16639 47 ft 0 kts 162°
2026-04-22 06:37 12.98469 80.16638 56 ft 2 kts 161°
2026-04-22 06:38 12.98485 80.16632 48 ft 2 kts 159°
2026-04-22 06:38 12.98500 80.16625 52 ft 2 kts 153°
2026-04-22 06:38 12.98514 80.16617 54 ft 2 kts 141°
2026-04-22 06:38 12.98526 80.16605 55 ft 2 kts 108°
2026-04-22 06:39 12.98527 80.16588 55 ft 2 kts 71°
2026-04-22 06:39 12.98525 80.16583 54 ft 0 kts 66°
2026-04-22 06:41 12.98526 80.16584 54 ft 1 kts 67°
2026-04-22 06:41 12.98536 80.16610 50 ft 8 kts 67°
2026-04-22 06:41 12.98565 80.16684 53 ft 13 kts 71°
2026-04-22 06:41 12.98606 80.16764 55 ft 13 kts 26°
2026-04-22 06:42 12.98691 80.16740 54 ft 14 kts 339°
2026-04-22 06:42 12.98767 80.16759 52 ft 12 kts 66°
2026-04-22 06:42 12.98799 80.16848 53 ft 14 kts 69°
2026-04-22 06:42 12.98837 80.16949 53 ft 17 kts 68°
2026-04-22 06:43 12.98880 80.17066 51 ft 18 kts 70°
2026-04-22 06:43 12.98930 80.17194 54 ft 20 kts 69°
2026-04-22 06:43 12.98993 80.17327 53 ft 22 kts 68°
2026-04-22 06:43 12.99049 80.17474 55 ft 23 kts 69°
2026-04-22 06:44 12.99106 80.17628 55 ft 19 kts 69°
2026-04-22 06:44 12.99151 80.17695 54 ft 11 kts 25°
2026-04-22 06:44 12.99226 80.17677 56 ft 12 kts 338°
2026-04-22 06:44 12.99289 80.17635 60 ft 10 kts 280°
2026-04-22 06:45 12.99276 80.17586 58 ft 0 kts 248°
2026-04-22 06:45 12.99275 80.17585 58 ft 2 kts 248°
2026-04-22 06:45 12.99208 80.17417 58 ft 60 kts 248°
2026-04-22 06:45 12.98983 80.16801 52 ft 121 kts 249°
2026-04-22 06:46 12.98623 80.15859 51 ft 164 kts 249°
2026-04-22 06:46 12.98170 80.14708 502 ft 171 kts 247°
2026-04-22 06:46 12.97780 80.13590 1194 ft 168 kts 247°
2026-04-22 06:46 12.97375 80.12424 1613 ft 182 kts 252°
2026-04-22 06:47 12.97426 80.11045 1812 ft 208 kts 283°
2026-04-22 06:47 12.97842 80.09538 2028 ft 232 kts 283°
2026-04-22 06:47 12.98313 80.07881 2322 ft 256 kts 284°
2026-04-22 06:47 12.98826 80.06066 2945 ft 269 kts 285°
2026-04-22 06:48 12.99348 80.04206 3748 ft 274 kts 285°
2026-04-22 06:48 12.99879 80.02298 4561 ft 280 kts 286°
2026-04-22 06:48 13.00415 80.00350 5347 ft 285 kts 287°
2026-04-22 06:48 13.00947 79.98398 6065 ft 291 kts 287°
2026-04-22 06:49 13.01508 79.96370 6741 ft 297 kts 288°
2026-04-22 06:49 13.02012 79.94290 7435 ft 302 kts 283°
2026-04-22 06:49 13.02402 79.92163 8138 ft 306 kts 282°
2026-04-22 06:49 13.02757 79.90016 8850 ft 310 kts 281°
2026-04-22 06:50 13.03107 79.87815 9575 ft 314 kts 281°
2026-04-22 06:50 13.03457 79.85602 10084 ft 325 kts 281°
2026-04-22 06:50 13.03838 79.83230 10242 ft 347 kts 281°
2026-04-22 06:50 13.04248 79.80710 10436 ft 366 kts 281°
2026-04-22 06:51 13.04668 79.78138 10931 ft 372 kts 281°
2026-04-22 06:51 13.05104 79.75502 11522 ft 375 kts 281°
2026-04-22 06:51 13.05545 79.72849 12129 ft 378 kts 281°
2026-04-22 06:51 13.05992 79.70178 12738 ft 380 kts 281°
2026-04-22 06:52 13.06435 79.67525 13328 ft 383 kts 281°
2026-04-22 06:52 13.06886 79.64815 13899 ft 386 kts 281°
2026-04-22 06:52 13.07336 79.62091 14475 ft 387 kts 281°
2026-04-22 06:52 13.07784 79.59361 15051 ft 387 kts 281°
2026-04-22 06:53 13.08227 79.56660 15593 ft 389 kts 281°
2026-04-22 06:53 13.08675 79.53932 15808 ft 389 kts 280°
2026-04-22 06:53 13.09134 79.51155 15875 ft 400 kts 280°
2026-04-22 06:53 13.09610 79.48274 15879 ft 413 kts 280°
2026-04-22 06:54 13.10088 79.45367 15876 ft 417 kts 281°
2026-04-22 06:54 13.10571 79.42428 15877 ft 418 kts 280°
2026-04-22 06:54 13.11052 79.39496 15882 ft 418 kts 280°
2026-04-22 06:54 13.11531 79.36569 15884 ft 418 kts 280°
2026-04-22 06:55 13.12014 79.33620 15884 ft 418 kts 280°
2026-04-22 06:55 13.12499 79.30658 15886 ft 418 kts 281°
2026-04-22 06:55 13.12978 79.27733 15890 ft 418 kts 281°
2026-04-22 06:55 13.13462 79.24785 15895 ft 418 kts 280°
2026-04-22 06:56 13.13946 79.21834 15894 ft 418 kts 280°
2026-04-22 06:56 13.14423 79.18931 15898 ft 418 kts 281°
2026-04-22 06:56 13.14906 79.15966 15899 ft 418 kts 280°
2026-04-22 06:56 13.15385 79.13015 15898 ft 418 kts 280°
2026-04-22 06:57 13.15861 79.10104 15898 ft 418 kts 280°
2026-04-22 06:57 13.16344 79.07152 15903 ft 418 kts 280°
2026-04-22 06:57 13.16825 79.04207 15904 ft 418 kts 280°
2026-04-22 06:57 13.17302 79.01282 15904 ft 418 kts 280°
2026-04-22 06:58 13.17784 78.98308 15905 ft 418 kts 280°
2026-04-22 06:58 13.18254 78.95396 15909 ft 419 kts 280°
2026-04-22 06:58 13.18730 78.92460 15914 ft 419 kts 280°
2026-04-22 06:58 13.19210 78.89500 15921 ft 419 kts 280°
2026-04-22 06:59 13.19686 78.86557 15924 ft 419 kts 280°
2026-04-22 06:59 13.20161 78.83602 15927 ft 419 kts 280°
2026-04-22 06:59 13.20640 78.80645 15922 ft 419 kts 280°
2026-04-22 06:59 13.21115 78.77725 15927 ft 419 kts 280°
2026-04-22 07:00 13.21596 78.74760 15929 ft 419 kts 280°
2026-04-22 07:00 13.22070 78.71840 15932 ft 418 kts 280°
2026-04-22 07:00 13.22549 78.68878 15931 ft 418 kts 280°
2026-04-22 07:00 13.23026 78.65927 15934 ft 418 kts 280°
2026-04-22 07:01 13.23496 78.63013 15940 ft 418 kts 280°
2026-04-22 07:01 13.23973 78.60062 15941 ft 419 kts 280°
2026-04-22 07:01 13.24451 78.57107 15940 ft 419 kts 280°
2026-04-22 07:01 13.24930 78.54144 15941 ft 419 kts 280°
2026-04-22 07:02 13.25400 78.51218 15944 ft 419 kts 280°
2026-04-22 07:02 13.25874 78.48251 15947 ft 419 kts 280°
2026-04-22 07:02 13.26337 78.45340 15944 ft 419 kts 280°
2026-04-22 07:02 13.26809 78.42368 15950 ft 419 kts 280°
2026-04-22 07:03 13.27281 78.39402 15951 ft 419 kts 280°
2026-04-22 07:03 13.27748 78.36488 15951 ft 419 kts 280°
2026-04-22 07:03 13.28224 78.33524 15951 ft 419 kts 280°
2026-04-22 07:03 13.28704 78.30541 15947 ft 420 kts 280°
2026-04-22 07:04 13.29173 78.27618 15950 ft 420 kts 280°
2026-04-22 07:04 13.29651 78.24636 15956 ft 420 kts 280°
2026-04-22 07:04 13.30124 78.21671 15959 ft 420 kts 279°
2026-04-22 07:04 13.30416 78.18718 15963 ft 421 kts 272°
2026-04-22 07:05 13.30457 78.15679 15971 ft 422 kts 271°
2026-04-22 07:05 13.30497 78.12704 15970 ft 422 kts 271°
2026-04-22 07:05 13.30539 78.09685 15972 ft 422 kts 271°
2026-04-22 07:05 13.30580 78.06664 15969 ft 422 kts 271°
2026-04-22 07:06 13.30621 78.03662 15978 ft 422 kts 271°
2026-04-22 07:06 13.30662 78.00708 15826 ft 412 kts 271°
2026-04-22 07:06 13.30702 77.97804 15581 ft 400 kts 271°
2026-04-22 07:06 13.30743 77.94978 15343 ft 388 kts 271°
2026-04-22 07:07 13.30783 77.92237 15114 ft 379 kts 271°
2026-04-22 07:07 13.30819 77.89586 14888 ft 370 kts 271°
2026-04-22 07:07 13.30853 77.86968 14655 ft 362 kts 271°
2026-04-22 07:07 13.30886 77.84404 14428 ft 355 kts 272°
2026-04-22 07:08 13.30919 77.81884 14201 ft 349 kts 272°
2026-04-22 07:08 13.30951 77.79404 13976 ft 343 kts 272°
2026-04-22 07:08 13.30983 77.77001 13746 ft 338 kts 272°
2026-04-22 07:08 13.31009 77.74595 13492 ft 334 kts 272°
2026-04-22 07:09 13.31031 77.72221 13235 ft 329 kts 272°
2026-04-22 07:09 13.31050 77.69872 12982 ft 325 kts 271°
2026-04-22 07:09 13.31065 77.67564 12733 ft 322 kts 271°
2026-04-22 07:09 13.31078 77.65304 12481 ft 318 kts 271°
2026-04-22 07:10 13.31093 77.63030 12239 ft 315 kts 271°
2026-04-22 07:10 13.31110 77.60789 11966 ft 314 kts 271°
2026-04-22 07:10 13.31128 77.58539 11548 ft 317 kts 271°
2026-04-22 07:10 13.31146 77.56260 11113 ft 320 kts 271°
2026-04-22 07:11 13.31164 77.53985 10697 ft 324 kts 271°
2026-04-22 07:11 13.31181 77.51661 10277 ft 327 kts 271°
2026-04-22 07:11 13.31078 77.49318 9858 ft 329 kts 258°
2026-04-22 07:11 13.30167 77.47163 9397 ft 330 kts 232°
2026-04-22 07:12 13.28467 77.45616 9036 ft 325 kts 206°
2026-04-22 07:12 13.26399 77.44932 8978 ft 310 kts 188°
2026-04-22 07:12 13.24344 77.44636 8960 ft 285 kts 175°
2026-04-22 07:12 13.22515 77.45197 8840 ft 270 kts 143°
2026-04-22 07:13 13.21281 77.46568 8727 ft 258 kts 114°
2026-04-22 07:13 13.20868 77.48292 8588 ft 250 kts 90°
2026-04-22 07:13 13.20854 77.50066 8476 ft 245 kts 89°
2026-04-22 07:13 13.20851 77.51840 8083 ft 253 kts 89°
2026-04-22 07:14 13.20840 77.53645 7744 ft 256 kts 89°
2026-04-22 07:14 13.20824 77.55475 7558 ft 255 kts 90°
2026-04-22 07:14 13.20809 77.57291 7333 ft 254 kts 89°
2026-04-22 07:14 13.20796 77.59106 7106 ft 254 kts 89°
2026-04-22 07:15 13.20816 77.61026 5819 ft 291 kts 90°
2026-04-22 07:15 13.20792 77.63204 4775 ft 320 kts 90°
2026-04-22 07:15 13.20772 77.65523 4001 ft 324 kts 90°
2026-04-22 07:15 13.20713 77.67823 4041 ft 327 kts 92°
2026-04-22 07:16 13.20662 77.70222 4232 ft 355 kts 91°
2026-04-22 07:16 13.20648 77.72764 4223 ft 347 kts 87°
2026-04-22 07:16 13.21109 77.75127 4208 ft 330 kts 70°
2026-04-22 07:16 13.22216 77.77105 4824 ft 316 kts 52°
2026-04-22 07:17 13.23712 77.78622 5524 ft 284 kts 38°
2026-04-22 07:17 13.25359 77.79554 5779 ft 265 kts 20°
2026-04-22 07:17 13.27099 77.79976 5932 ft 250 kts 13°
2026-04-22 07:17 13.28751 77.80334 5977 ft 236 kts 14°
2026-04-22 07:18 13.30358 77.80687 5975 ft 234 kts 14°
2026-04-22 07:18 13.31945 77.81035 5982 ft 233 kts 14°
2026-04-22 07:18 13.33536 77.81381 5969 ft 234 kts 14°
2026-04-22 07:18 13.35114 77.81718 5973 ft 233 kts 14°
2026-04-22 07:19 13.36713 77.82043 5982 ft 234 kts 14°
2026-04-22 07:19 13.38311 77.82371 5971 ft 235 kts 13°
2026-04-22 07:19 13.39916 77.82710 5972 ft 233 kts 14°
2026-04-22 07:19 13.41515 77.83057 5960 ft 235 kts 15°
2026-04-22 07:20 13.43088 77.83403 5960 ft 233 kts 14°
2026-04-22 07:20 13.44674 77.83756 5975 ft 232 kts 14°
2026-04-22 07:20 13.46263 77.84057 5962 ft 234 kts
2026-04-22 07:20 13.47868 77.83748 5956 ft 237 kts 336°
2026-04-22 07:21 13.49131 77.82685 5949 ft 240 kts 306°
2026-04-22 07:21 13.49748 77.81074 5960 ft 246 kts 276°
2026-04-22 07:21 13.49505 77.79351 5953 ft 247 kts 245°
2026-04-22 07:21 13.48581 77.77893 5960 ft 246 kts 232°
2026-04-22 07:22 13.47566 77.76474 5956 ft 246 kts 232°
2026-04-22 07:22 13.46557 77.75066 5960 ft 246 kts 232°
2026-04-22 07:22 13.45542 77.73649 5971 ft 247 kts 231°
2026-04-22 07:22 13.44532 77.72238 5972 ft 246 kts 232°
2026-04-22 07:23 13.43521 77.70820 5970 ft 247 kts 232°
2026-04-22 07:23 13.42504 77.69396 5972 ft 247 kts 233°
2026-04-22 07:23 13.41482 77.67967 5971 ft 246 kts 233°
2026-04-22 07:23 13.40470 77.66555 5993 ft 248 kts 234°
2026-04-22 07:24 13.39457 77.65144 5967 ft 247 kts 233°
2026-04-22 07:24 13.38776 77.64194 5968 ft 247 kts 232°
2026-04-22 07:24 13.37431 77.62310 5976 ft 246 kts 232°
2026-04-22 07:24 13.36755 77.61362 5970 ft 245 kts 232°
2026-04-22 07:25 13.35413 77.59486 5973 ft 245 kts 232°
2026-04-22 07:25 13.34738 77.58542 5977 ft 246 kts 232°
2026-04-22 07:25 13.33716 77.57115 5968 ft 246 kts 233°
2026-04-22 07:25 13.32705 77.55703 5985 ft 246 kts 232°
2026-04-22 07:26 13.31691 77.54284 5978 ft 245 kts 232°
2026-04-22 07:26 13.30693 77.52889 5983 ft 244 kts 232°
2026-04-22 07:26 13.29684 77.51483 5971 ft 241 kts 233°
2026-04-22 07:26 13.28704 77.50114 5966 ft 232 kts 232°
2026-04-22 07:27 13.27701 77.48860 5965 ft 226 kts 218°
2026-04-22 07:27 13.26463 77.47925 5971 ft 213 kts 213°
2026-04-22 07:27 13.25237 77.47150 5961 ft 201 kts 198°
2026-04-22 07:27 13.23931 77.46922 5961 ft 183 kts 171°
2026-04-22 07:28 13.21783 77.47895 5960 ft 164 kts 128°
2026-04-22 07:28 13.21152 77.48829 5977 ft 160 kts 113°
2026-04-22 07:28 13.20873 77.49921 5975 ft 159 kts 93°
2026-04-22 07:29 13.20855 77.51091 5995 ft 168 kts 90°
2026-04-22 07:29 13.20847 77.52302 5903 ft 172 kts 88°
2026-04-22 07:29 13.20838 77.53545 5740 ft 175 kts 89°
2026-04-22 07:29 13.20827 77.54812 5541 ft 181 kts 88°
2026-04-22 07:30 13.20818 77.56109 5312 ft 188 kts 90°
2026-04-22 07:30 13.20807 77.57467 5099 ft 190 kts 90°
2026-04-22 07:30 13.20796 77.58863 4845 ft 198 kts 90°
2026-04-22 07:30 13.20784 77.60267 4585 ft 198 kts 90°
2026-04-22 07:31 13.20773 77.61686 4341 ft 199 kts 90°
2026-04-22 07:31 13.20762 77.63082 4102 ft 186 kts 90°
2026-04-22 07:31 13.20752 77.64299 3861 ft 163 kts 90°
2026-04-22 07:31 13.20747 77.64852 3768 ft 155 kts 90°
2026-04-22 07:32 13.20734 77.65472 3692 ft 150 kts 91°
2026-04-22 07:32 13.20729 77.66546 3474 ft 148 kts 90°
2026-04-22 07:32 13.20723 77.67590 3253 ft 146 kts 90°
2026-04-22 07:32 13.20720 77.68627 3082 ft 144 kts 91°
2026-04-22 07:33 13.20712 77.69606 3011 ft 119 kts 90°
2026-04-22 07:33 13.20705 77.70280 3011 ft 69 kts 90°
2026-04-22 07:33 13.20674 77.70488 3011 ft 16 kts 123°
2026-04-22 07:33 13.20620 77.70591 3011 ft 16 kts 118°
2026-04-22 07:34 13.20609 77.70609 3014 ft 0 kts 122°
2026-04-22 07:34 13.20600 77.70623 3011 ft 4 kts 123°
2026-04-22 07:34 13.20580 77.70656 3011 ft 7 kts 120°
2026-04-22 07:34 13.20546 77.70717 3011 ft 12 kts 119°
2026-04-22 07:35 13.20529 77.70810 3011 ft 14 kts 89°
2026-04-22 07:35 13.20529 77.70919 3011 ft 16 kts 90°
2026-04-22 07:35 13.20527 77.71040 3011 ft 18 kts 89°
2026-04-22 07:35 13.20526 77.71172 3011 ft 19 kts 90°
2026-04-22 07:36 13.20526 77.71231 3011 ft 6 kts 90°
2026-04-22 07:36 13.20511 77.71272 3014 ft 7 kts 147°
2026-04-22 07:36 13.20459 77.71277 3011 ft 8 kts 181°
2026-04-22 07:36 13.20394 77.71276 3011 ft 10 kts 180°
2026-04-22 07:37 13.20317 77.71276 3014 ft 12 kts 180°
2026-04-22 07:37 13.20263 77.71276 3011 ft 7 kts 175°
2026-04-22 07:37 13.20216 77.71298 3011 ft 8 kts 168°
2026-04-22 07:37 13.20158 77.71304 3011 ft 5 kts 173°
2026-04-22 07:38 13.20157 77.71304 3011 ft 0 kts 173°